BSAT-4A (42951 NORAD) Tracking and Keplerian Element Data

This shows tracking and keplerian element data for the satellite.

Feedback or suggestion? Click here.




ElementValue
Catalog42951
NameBSAT-4A
Epoch Orbit2695
Epoch Day34.59953745
Epoch Year2025
RAAN56.4652
Inclination0.047
Eccentricity0.00035
Argument of Perigee311.2248
Mean Anonmoly91.9731
Mean Motion1.00271819
Decay Rate-3.46E-06
L11 42951U 17059B 25034.59953745 -.00000346 00000+0 00000+0 0 9996
L22 42951 0.0470 56.4652 0003500 311.2248 91.9731 1.00271819 26952



Live tracking and technical data element details for BSAT-4A (NORAD 42951). BSAT-4A can be tracked NOW for your location showing map with azimuth and elevation plus other details from your city location.







IsCatalogInMostPopularTable: catalog: 42951, numindb: 625
Update: records affected: 1



GetName: 42951 BSAT-4A

Hit Count: updated at: Wed, 30 Apr 2025 16:54:49 GMT